Location: Unspecified
(0.0000°N, 0.0000°E)
Time: 23:59:36
(UTC+00:00)

Envisat - Pass Details

Date: 04 July 2018
Orbit: 764 x 766 km, 98.1° (Epoch: 16 October)

Event Time Altitude Azimuth Distance (km) Brightness Sun altitude
Exits shadow 19:54:21 48° 186° (S) 992 3.4 -25.1°
Maximum altitude 19:55:44 75° 258° (WSW) 792 3.0 -25.5°
Drops below altitude 10° 20:00:46 10° 343° (NNW) 2,290 6.0 -26.6°
Sets 20:03:04 0° 345° (NNW) 3,213 6.8 -27.1°
